Regional Weather Roundup
Issued by NWS

Home | Current Version | Previous Version | Graphics & Text | Print | Product List | Glossary On
Versions: 1 2 3 4 5 6 7 8 9 10 11 12 13 14 15 16 17 18 19 20 21 22 23 24 25 26 27 28 29 30 31 32 33 34 35 36 37 38 39 40 41 42 43 44 45 46 47 48 49 50
000
ASUS43 KMKX 170400
RWRWI

WISCONSIN REGIONAL WEATHER ROUNDUP
NATIONAL WEATHER SERVICE MILWAUKEE/SULLIVAN WI
1000 PM CST MON JAN 16 2017

NOTE: "FAIR" INDICATES FEW OR NO CLOUDS BELOW 12,000 FEET WITH NO
SIGNIFICANT WEATHER AND/OR OBSTRUCTIONS TO VISIBILITY.

WIZ001-002-006>008-014>016-023>028-170500-
NORTHWEST WISCONSIN

CITY           SKY/WX    TMP DP  RH WIND       PRES   REMARKS
SUPERIOR ARPT  CLOUDY    19  16  88 CALM      30.03F
ASHLAND        CLOUDY    25  20  81 N3        30.02F
HAYWARD        CLOUDY    27  20  75 CALM      29.99F
SIREN          CLOUDY    26  20  77 CALM      30.00F
CUMBERLAND     CLOUDY    27  19  74 CALM      29.98S
RICE LAKE      MIX PCPN  28  22  80 CALM      30.00F
CHETEK         MIX PCPN  29  28  96 CALM      29.99S
LADYSMITH      CLOUDY    32  23  70 NE5       30.00F WCI  27
EAU CLAIRE     FRZ RAIN  32  30  92 NE6       29.97F FOG     WCI  26
MENOMONIE      LGT RAIN  33  32  98 NE3       29.98F
NEW RICHMOND   LGT SNOW  31  29  92 CALM      29.97F
OSCEOLA        CLOUDY    29  21  71 CALM      30.01F
$$

WIZ003>005-009-010-017-018-170500-
NORTH CENTRAL WISCONSIN

CITY           SKY/WX    TMP DP  RH WIND       PRES   REMARKS
MANITOWISH WTR MOCLDY    20  18  93 CALM      29.99F
ARBOR VITAE    CLOUDY    29  23  78 CALM      29.99F
WOODRUFF       CLOUDY    29  23  78 CALM      29.99F
RHINELANDER    CLOUDY    26  21  81 CALM      29.98F
EAGLE RIVER    CLOUDY    23  19  85 CALM      29.99F
LAND O LAKES   CLOUDY    21  19  89 CALM      30.01F
PHILLIPS       CLOUDY    28  20  73 NE3       29.98F
TOMAHAWK       CLOUDY    28  21  74 CALM      29.99F
MEDFORD        MIX PCPN  31  29  94 E6        29.96F WCI  25
MERRILL        MIX PCPN  30  27  86 E3          N/A
$$

WIZ029-030-035-036-043>047-170500-
CENTRAL WISCONSIN

CITY           SKY/WX    TMP DP  RH WIND       PRES   REMARKS
WAUSAU         FRZ RAIN  30  28  92 E7        29.97F FOG     WCI  23
MOSINEE        NOT AVBL
MARSHFIELD     FRZ RAIN  32  31  96 E8        29.94F FOG     WCI  25
STEVENS POINT  MIX PCPN  31  31 100 NE5       29.98F WCI  26
WAUPACA        DRIZZLE   34  32  92 CALM      29.99F
WAUTOMA        MIX PCPN  33  32  96 E10       29.96F FOG     WCI  25
WISC RAPIDS    MIX PCPN  33  32  96 E6        29.97F FOG     WCI  28
CAMP DOUGLAS   DRIZZLE   32  32 100 E5        29.94F FOG     WCI  27
$$

WIZ011>013-019>022-031-037>040-048>050-170500-
NORTHEAST WISCONSIN

CITY           SKY/WX    TMP DP  RH WIND       PRES   REMARKS
ANTIGO         MIX PCPN  28  23  81 E8        29.99F WCI  20
SHAWANO        RAIN      33  30  91 NE6       30.03F WCI  27
OCONTO         CLOUDY    30  28  92 NE3       30.05F
STURGEON BAY   MIX PCPN  33  31  92 E6        30.04F FOG     WCI  28
GREEN BAY      FRZ RAIN  35  34  96 E8        30.01F FOG     WCI  29
MANITOWOC      NOT AVBL
APPLETON       DRIZZLE   32  32 100 E6        29.97F WCI  26
CLINTONVILLE   MIX PCPN  32  32 100 E7        30.00F WCI  26
OSHKOSH        MIX PCPN  33  32  96 E8        29.95F WCI  26
$$

WIZ032>034-041-042-053>061-170500-
SOUTHWEST WISCONSIN

CITY           SKY/WX    TMP DP  RH WIND       PRES   REMARKS
LA CROSSE      MIX PCPN  37  32  82 CALM      29.93F
SPARTA         MIX PCPN  32  32  99 E6        29.95F WCI  27
VIROQUA        CLOUDY    32  32 100 E5        29.89F WCI  28
BOSCOBEL       CLOUDY    34  33  96 NE5       29.91F FOG     WCI  30
PRAIRIE DU CHI CLOUDY    33  32  96 CALM      29.90F FOG
PLATTEVILLE    CLOUDY    34  34 100 E10       29.87F WCI  26
$$

WIZ056-057-062-063-064-067-068-170500-
SOUTH CENTRAL WISCONSIN

CITY           SKY/WX    TMP DP  RH WIND       PRES   REMARKS
REEDSBURG      DRIZZLE   32  32 100 E3        29.92F
BARABOO/DELLS  MIX PCPN  32  32  99 E9        29.92F VSB 3/4 WCI  24
LONE ROCK      CLOUDY    34  32  92 E7        29.92F FOG     WCI  28
MINERAL POINT  CLOUDY    34  34 100 E10       29.88F FOG     WCI  26
MADISON        LGT RAIN  34  33  96 E6        29.91F FOG     WCI  29
MIDDLETON      CLOUDY    35  35 100 E5        29.93S WCI  31
WATERTOWN      DRIZZLE   34  34 100 E8        29.92F WCI  27
MONROE         FOG       34  34 100 NE8       29.88F VSB 1/4 WCI  27
JANESVILLE     CLOUDY    36  36 100 E6        29.90F WCI  31
$$

WIZ051-052-058>065-066-070>072-170500-
SOUTHEAST WISCONSIN

CITY           SKY/WX    TMP DP  RH WIND       PRES   REMARKS
MILWAUKEE      CLOUDY    37  35  92 E13G20    29.94F FOG     WCI  29
WAUKESHA       CLOUDY    32  32 100 E10       29.93F FOG     WCI  24
MILWAUKEE/TIMM LGT RAIN  34  32  93 E12       29.95F WCI  25
RACINE         CLOUDY    36  34  92 E12       29.95F FOG     WCI  28
KENOSHA        FOG       36  35  96 E12       29.92F VSB 1/2 WCI  28
FOND DU LAC    LGT RAIN  35  31  85 E7        29.95F WCI  29
SHEBOYGAN      LGT RAIN  35  33  92 E10       29.97F FOG     WCI  27
WEST BEND      CLOUDY    34  34 100 E10       29.95F FOG     WCI  26
JUNEAU         CLOUDY    33  32  96 E9        29.93F WCI  26
$$

LSZ147-162-170500-
LAKE SUPERIOR

STATION/POSITION TIME  TEMP    WIND        PRES    WAVE
                       AIR SEA DIR/SP/G            HT/PER
                 (UTC) (F)     (DEG/KT/KT) (MB)    (FT/S)
DEVILS ISLAND    0300   31      90/  4/  5 1018.3F
PORT WING        0330   21     160/  3/  4 1017.3S
SAXON HARBOR     0340   25      CALM  /  2 1016.6F
$$

LMZ867-665-643>646-170500-
LAKE MICHIGAN

STATION/POSITION TIME  TEMP    WIND        PRES    WAVE
                       AIR SEA DIR/SP/G            HT/PER
                 (UTC) (F)     (DEG/KT/KT) (MB)    (FT/S)
NORTHPORT PIER   0340   29        CALM     1018.3F
SISTER BAY       0320   28        CALM       N/A
ALGOMA LAKESHORE 0323          100/ 11/ 12   N/A
KEWAUNEE LAKESHO 0330   34      80/  6/  9 1016.7F
SHEBOYGAN LAKESH 0300   36     110/ 12/ 14 1017.2F
PORT WASHINGTON  0330   36     110/ 10/ 14 1016.3F
MILWAUKEE LAKESH 0330   36      80/ 16/ 20   N/A
KENOSHA   LAKESH 0300   35      70/ 12/ 14 1014.6
$$

TC  - TEMPERATURE IN CELSIUS
VSB - VISIBILITY IN STATUTE MILES
WCI - WIND CHILL INDEX
HX  - HEAT INDEX




USA.gov is the U.S. government's official web portal to all federal, state and local government web resources and services.